EW3967 Weather Reports


Display with metric or nautical units.
time (UTC)temp
F
wind
direction
speed
MPH
gust
MPH
rain 1hr
in
rain 24hr
in
rain mn
in
humidity
%
barometer
mb
20260831171554 96 165 3.0 17.0 0.00 0.00 0.00 39 1013.8
20260831170051 96 219 5.0 13.0 0.00 0.00 0.00 39 1013.9
20260831164601 95 195 4.0 12.0 0.00 0.00 0.00 40 1014.1
20260831163045 94 236 3.0 11.0 0.00 0.00 0.00 42 1014.2
20260831161540 93 238 6.0 13.0 0.00 0.00 0.00 43 1014.2
20260831160044 93 239 5.0 10.0 0.00 0.00 0.00 44 1014.2
20260831154534 92 243 4.0 15.0 0.00 0.00 0.00 47 1014.2
20260831153032 91 231 5.0 8.0 0.00 0.00 0.00 46 1014.2
20260831151524 89 215 4.0 10.0 0.00 0.00 0.00 49 1014.2
20260831150024 88 220 5.0 13.0 0.00 0.00 0.00 51 1014.3
20260831144521 87 210 4.0 9.0 0.00 0.00 0.00 52 1014.3
20260831143023 87 183 4.0 9.0 0.00 0.00 0.00 52 1014.3
20260831141511 86 234 2.0 7.0 0.00 0.00 0.00 54 1014.3
20260831140012 84 264 2.0 7.0 0.00 0.00 0.00 55 1014.3
20260831134507 82 156 2.0 4.0 0.00 0.00 0.00 56 1014.4
20260831133004 80 209 1.0 6.0 0.00 0.00 0.00 59 1014.4
20260831131503 78 160 2.0 5.0 0.00 0.00 0.00 62 1014.1
20260831130110 76 152 2.0 3.0 0.00 0.00 0.00 64 1014.0
20260831124558 75 156 0.0 2.0 0.00 0.00 0.00 64 1013.7
20260831123055 74 184 0.0 0.0 0.00 0.00 0.00 66 1013.4
20260831121554 72 184 0.0 0.0 0.00 0.00 0.00 68 1013.2
20260831120057 73 184 0.0 0.0 0.00 0.00 0.00 67 1013.0
20260831114547 74 184 0.0 0.0 0.00 0.00 0.00 64 1012.8
20260831113104 75 165 1.0 3.0 0.00 0.00 0.00 63 1012.6
20260831111541 75 167 1.0 5.0 0.00 0.00 0.00 62 1012.3
20260831110040 75 166 1.0 4.0 0.00 0.00 0.00 62 1012.3
20260831104539 75 152 1.0 4.0 0.00 0.00 0.00 61 1012.2
20260831103043 76 217 2.0 4.0 0.00 0.00 0.00 61 1012.2
20260831101536 76 169 1.0 4.0 0.00 0.00 0.00 60 1012.2
20260831100031 76 155 0.0 3.0 0.00 0.00 0.00 59 1012.0
20260831094531 77 189 0.0 4.0 0.00 0.00 0.00 58 1011.9
20260831093028 77 174 2.0 5.0 0.00 0.00 0.00 58 1011.8
20260831091526 78 158 1.0 4.0 0.00 0.00 0.00 57 1011.9
20260831090022 78 162 1.0 5.0 0.00 0.00 0.00 56 1011.7
20260831084523 79 150 0.0 4.0 0.00 0.00 0.00 55 1011.5
20260831083018 80 170 1.0 4.0 0.00 0.00 0.00 54 1011.4
20260831081520 80 191 2.0 5.0 0.00 0.00 0.00 53 1011.5
20260831080027 81 232 2.0 5.0 0.00 0.00 0.00 52 1011.4
20260831074512 81 166 2.0 6.0 0.00 0.00 0.00 51 1011.3
20260831073010 82 230 2.0 6.0 0.00 0.00 0.00 50 1011.4
20260831071507 82 165 2.0 6.0 0.00 0.00 0.00 49 1011.3
20260831070008 82 184 3.0 6.0 0.00 0.00 0.00 49 1011.4
20260831064505 83 186 2.0 7.0 0.00 0.00 0.00 48 1011.4
20260831063007 83 176 2.0 7.0 0.00 0.00 0.00 48 1011.5
20260831061503 83 164 3.0 7.0 0.00 0.00 0.00 49 1011.4
20260831060001 83 251 1.0 6.0 0.00 0.00 0.00 49 1011.5
20260831054559 83 193 2.0 7.0 0.00 0.00 0.00 49 1011.3
20260831053100 83 172 3.0 6.0 0.00 0.00 0.00 50 1011.1
20260831051601 84 202 1.0 5.0 0.00 0.00 0.00 49 1011.2
20260831050053 84 163 2.0 7.0 0.00 0.00 0.00 48 1011.2
20260831044602 85 171 3.0 8.0 0.00 0.00 0.00 47 1011.0
20260831043052 86 240 3.0 7.0 0.00 0.00 0.00 46 1011.1
20260831041553 86 167 2.0 9.0 0.00 0.00 0.00 45 1011.0
20260831040050 87 199 3.0 8.0 0.00 0.00 0.00 44 1011.0
20260831034551 87 228 4.0 10.0 0.00 0.00 0.00 44 1010.9
20260831033049 87 243 4.0 9.0 0.00 0.00 0.00 44 1010.8
20260831031548 87 159 4.0 9.0 0.00 0.00 0.00 44 1010.9
20260831030049 87 122 3.0 7.0 0.00 0.00 0.00 44 1010.6
20260831024547 87 156 1.0 5.0 0.00 0.00 0.00 44 1010.4
20260831023047 88 179 3.0 7.0 0.00 0.00 0.00 43 1010.1
20260831021549 89 153 3.0 6.0 0.00 0.00 0.00 42 1009.9
20260831020052 89 173 3.0 7.0 0.00 0.00 0.00 41 1009.6
20260831014545 90 234 3.0 8.0 0.00 0.00 0.00 40 1009.4
20260831013058 91 177 2.0 5.0 0.00 0.00 0.00 38 1009.2
20260831011546 93 192 1.0 5.0 0.00 0.00 0.00 37 1009.1
20260831010044 94 158 4.0 7.0 0.00 0.00 0.00 35 1009.1
20260831004541 95 176 2.0 8.0 0.00 0.00 0.00 34 1009.0
20260831003041 97 172 2.0 10.0 0.00 0.00 0.00 32 1008.9
20260831001539 98 168 4.0 13.0 0.00 0.00 0.00 31 1009.0
20260831000039 99 132 6.0 13.0 0.00 0.00 0.00 30 1009.0
20260830234542 99 158 10.0 16.0 0.00 0.00 0.00 30 1009.0
20260830233037 99 202 8.0 17.0 0.00 0.00 0.00 30 1009.1
20260830231536 100 181 7.0 16.0 0.00 0.00 0.00 29 1009.0
20260830230036 100 155 6.0 16.0 0.00 0.00 0.00 30 1009.0
20260830224536 101 205 5.0 10.0 0.00 0.00 0.00 30 1009.0
20260830223033 101 236 5.0 11.0 0.00 0.00 0.00 29 1009.0
20260830221544 101 198 6.0 14.0 0.00 0.00 0.00 29 1009.0
20260830220031 101 216 4.0 16.0 0.00 0.00 0.00 29 1009.1
20260830214531 101 183 7.0 15.0 0.00 0.00 0.00 29 1009.2
20260830213029 101 218 4.0 17.0 0.00 0.00 0.00 29 1009.4
20260830211528 102 106 6.0 13.0 0.00 0.00 0.00 28 1009.4
20260830210025 101 228 3.0 12.0 0.00 0.00 0.00 29 1009.7
20260830204522 101 205 4.0 15.0 0.00 0.00 0.00 29 1009.9
20260830203023 101 136 4.0 11.0 0.00 0.00 0.00 30 1010.1
20260830201516 101 134 6.0 18.0 0.00 0.00 0.00 29 1010.2
20260830200036 101 177 9.0 17.0 0.00 0.00 0.00 29 1010.3
20260830194508 101 147 5.0 12.0 0.00 0.00 0.00 28 1010.5
20260830193005 100 226 6.0 14.0 0.00 0.00 0.00 28 1010.8
20260830191501 100 205 7.0 16.0 0.00 0.00 0.00 29 1010.7
20260830190126 99 236 7.0 19.0 0.00 0.00 0.00 30 1011.0
20260830184608 100 221 7.0 15.0 0.00 0.00 0.00 29 1011.2
20260830183101 99 240 7.0 16.0 0.00 0.00 0.00 30 1011.4
20260830181550 99 240 4.0 18.0 0.00 0.00 0.00 33 1011.5
20260830180048 98 153 3.0 13.0 0.00 0.00 0.00 35 1011.7
20260830174557 98 107 4.0 11.0 0.00 0.00 0.00 35 1011.9
20260830173044 97 148 5.0 12.0 0.00 0.00 0.00 37 1012.2